Location: Alincthun
(50.7310°N, 1.8022°E)
Time: 00:49:08
(UTC+00:00)

Cosmos 921 Rocket - Pass Details

Date: 17 February 2020
Orbit: 572 x 631 km, 75.8° (Epoch: 04 April)

Event Time Altitude Azimuth Distance (km) Brightness Sun altitude
Rises 05:40:44 0° 335° (NNW) 2,921 6.2 -13.5°
Reaches altitude 10° 05:43:03 10° 332° (NNW) 2,002 5.4 -13.1°
Maximum altitude 05:47:25 56° 254° (WSW) 737 3.1 -12.4°
Drops below altitude 10° 05:51:41 10° 177° (S) 1,953 5.7 -11.8°
Sets 05:53:54 0° 173° (S) 2,842 6.6 -11.4°
